Погода в Залипье

Россия / Красноярский край     56°40′21″N   96°22′05″E
темп.,
°C
ветер,
м/с
пор.,
м/с
влажн.,
%
обл.,
%
осадки,
мм/ч
давл.,
гПа
погр.,
м
26 января, вт
вт2601:00−37зюз119873 0.0 104619
04:00−34в119798 0.0 104441
07:00−33в129899 0.1 104468
10:00−32всв2397100 0.1 1043139
13:00−30всв2395100 0.1 1042277
16:00−30св2396100 0.0 1042224
19:00−33св2298100 0.1 104427
22:00−35св129997 0.0 104519
27 января, ср
ср2701:00−36всв119994 0.0 104519
04:00−37вюв1110052 0.0 104519
07:00−37юв229826 0.0 104419
10:00−34юв259726 0.0 1041123
13:00−27юв389363 0.0 1035264
16:00−24юв4891100 0.0 1029319
19:00−21юв51197100 0.6 1024362
22:00−18ю31097100 1.2 1020447
28 января, чт
чт2801:00−13юз41194100 1.6 1017628
04:00−12з41194100 0.3 1016572
07:00−19зсз41393100 0.3 1018562
10:00−23з51491100 0.0 1022645
13:00−22з61283100 0.0 1024798
16:00−23зсз51283100 0.0 1025845
19:00−26сз41187100 0.0 1027649
22:00−28ссз2597100 0.2 1027352
29 января, пт
пт2901:00−29св2399100 0.8 1026199
04:00−29в2499100 1.0 1024220
07:00−29в3598100 1.9 1023244
10:00−28в4898100 0.9 1020255
13:00−25в4798100 2.0 1017287
16:00−24всв4798100 1.1 1016299
19:00−25св3597100 1.9 1019296
22:00−27св229899 0.1 102169
30 января, сб
сб3001:00−27в2399100 0.3 1020120
04:00−25в3599100 0.6 1017157
07:00−23всв2299100 1.6 101582
10:00−21зсз51495100 0.2 1016525
13:00−23зсз61289100 0.3 1019782
16:00−26зсз61289100 0.1 1024887
19:00−30зсз41193100 0.1 1030672
22:00−31зсз41095100 0.0 1033514